Terminal Aerodrome Forecast
Issued by NWS Omaha/Valley, NE

Home | Current Version | Previous Version | Graphics & Text | Print | Product List | Glossary On
Versions: 1 2 3 4 5 6 7 8 9 10 11 12 13 14 15 16 17 18 19 20 21 22 23 24 25 26 27 28 29 30 31 32 33 34 35 36 37 38 39 40 41 42 43
000
FTUS43 KOAX 230211 AAA
TAFOFK
TAF AMD
KOFK 230211Z 2302/2324 12006KT P6SM OVC080
     FM231100 15005KT P6SM OVC025
     FM231400 14008KT 5SM BR OVC015
     FM231800 15011KT P6SM OVC025=

USA.gov is the U.S. government's official web portal to all federal, state and local government web resources and services.